This is the latest recevied weather packets stored in our database for station/object K5OLV. If no packets are shown the sender has not sent any weather packets the latest 10 day(s).
| Time | Temp. | Humidity | Pressure | Rain* | Wind** | Luminosity | Snow |
|---|---|---|---|---|---|---|---|
| 1777815202 | 7.78° C | 89% | 1018.7 hPa | 0 mm | - | 386 W/m² | - |
| 1777814898 | 7.78° C | 88% | 1018.5 hPa | 0 mm | - | 361 W/m² | - |
| 1777814595 | 7.78° C | 87% | 1018.4 hPa | 0 mm | - | 346 W/m² | - |
| 1777814292 | 7.78° C | 86% | 1018.5 hPa | 0 mm | - | 312 W/m² | - |
| 1777813988 | 7.22° C | 87% | 1018.5 hPa | 0 mm | - | 301 W/m² | - |
| 1777813686 | 7.22° C | 88% | 1018.4 hPa | 0 mm | - | 236 W/m² | - |
| 1777813383 | 6.67° C | 89% | 1018.4 hPa | 0 mm | - | 161 W/m² | - |
| 1777813081 | 6.67° C | 89% | 1018.3 hPa | 0 mm | - | 234 W/m² | - |
| 1777812778 | 6.67° C | 87% | 1018.2 hPa | 0 mm | - | 204 W/m² | - |
| 1777812474 | 7.22° C | 89% | 1018.2 hPa | 0 mm | - | 264 W/m² | - |
| 1777812172 | 7.22° C | 88% | 1018.2 hPa | 0 mm | - | 144 W/m² | - |
| 1777811870 | 7.22° C | 92% | 1018.2 hPa | 0 mm | - | 105 W/m² | - |
| 1777811569 | 6.11° C | 95% | 1018.3 hPa | 0 mm | - | 89 W/m² | - |
| 1777811264 | 6.11° C | 96% | 1018.2 hPa | 0 mm | - | 77 W/m² | - |
| 1777810961 | 5.56° C | 97% | 1018.3 hPa | 0 mm | - | 46 W/m² | - |
| 1777810658 | 5.56° C | 97% | 1018.3 hPa | 0 mm | - | 51 W/m² | - |
| 1777810355 | 5° C | 97% | 1018.3 hPa | 0 mm | - | 45 W/m² | - |
| 1777810051 | 5° C | 97% | 1018.2 hPa | 0 mm | - | 39 W/m² | - |
| 1777809749 | 5° C | 97% | 1018.2 hPa | 0 mm | - | 37 W/m² | - |
| 1777809446 | 5° C | 97% | 1018.3 hPa | 0 mm | - | 37 W/m² | - |
| 1777809144 | 5° C | 97% | 1018 hPa | 0 mm | - | 33 W/m² | - |
| 1777808842 | 4.44° C | 97% | 1017.9 hPa | 0 mm | - | 33 W/m² | - |
| 1777808538 | 4.44° C | 97% | 1017.8 hPa | 0 mm | - | 29 W/m² | - |
| 1777808235 | 4.44° C | 97% | 1018 hPa | 0 mm | - | 27 W/m² | - |
| 1777807934 | 3.89° C | 97% | 1017.9 hPa | 0 mm | - | 26 W/m² | - |
* Rain latest hour (hover to see other rain measurements)
** Current wind speed in m/s (hover to see current wind gust speed)